Wind_Speed
21 21 21 20 19 18 18 17 16 17 17 19 20 19 17 16 17 17 17 17 16 15 15 14 15 14 14 13 13 13 13 13 13 14 14 15 14 14 14 14 13 13 13 12
21 22 20 19 20 21 20 19 19 18 18 19 21 21 18 16 17 17 17 18 18 16 16 15 13 13 13 12 13 13 13 13 14 14 15 15 15 14 14 14 14 14 14 13
22 20 20 21 21 21 21 21 19 19 18 19 21 22 18 17 17 19 19 18 18 18 16 15 15 14 13 13 13 13 14 14 14 15 16 15 15 15 15 15 15 15 14 13
22 21 21 22 21 21 22 20 20 20 19 20 20 21 19 18 19 19 19 18 18 17 17 16 15 15 14 14 14 14 15 15 15 16 16 15 15 16 15 15 15 15 14 14
22 23 22 22 21 22 21 20 20 20 20 21 20 20 19 18 19 18 19 18 18 19 19 17 16 15 15 15 15 15 16 16 16 17 16 16 16 16 16 16 15 15 14 14
23 23 23 22 22 22 22 21 20 20 21 24 22 20 19 19 19 19 19 19 19 19 20 18 17 16 16 16 15 16 17 17 17 17 17 17 17 17 17 17 16 15 15 14
24 24 24 24 24 23 22 21 20 20 21 22 19 19 20 21 20 21 19 20 19 19 19 18 17 17 16 16 16 17 17 17 17 18 18 17 17 17 17 17 17 17 15 14
24 25 25 25 24 23 22 21 21 19 17 17 17 19 20 22 21 21 21 20 20 19 19 19 18 17 17 17 17 18 18 18 18 18 18 18 18 18 17 17 17 17 16 15
22 22 23 24 24 24 23 22 20 18 18 16 16 18 21 22 22 22 21 21 21 22 22 20 18 18 19 18 18 19 19 19 20 19 19 19 19 19 18 17 17 17 17 16
22 22 23 23 24 24 23 22 21 22 22 21 18 18 20 23 22 21 22 22 22 23 23 21 20 20 20 19 19 20 20 20 20 20 20 19 19 19 18 17 17 17 17 16
24 23 23 24 25 23 24 24 24 24 23 22 19 20 20 23 23 22 22 22 22 23 23 21 21 20 20 20 19 20 20 20 20 20 20 20 20 19 18 17 17 17 17 16
25 25 25 24 24 24 24 24 24 25 25 24 23 21 22 21 23 23 22 22 22 22 23 22 21 20 20 20 20 20 20 20 19 20 20 20 19 19 18 18 18 18 17 17
27 27 26 23 23 23 24 24 24 24 24 24 23 21 22 23 22 23 23 23 23 23 24 23 21 21 21 21 21 21 20 20 20 20 20 19 19 19 18 18 19 19 19 18
29 29 28 25 22 23 24 24 24 25 25 25 24 23 23 23 21 23 24 23 24 25 24 23 22 21 21 22 22 21 20 20 20 20 20 19 18 19 19 18 19 19 19 18
29 30 29 27 25 23 23 23 24 25 25 25 24 25 26 25 24 23 24 23 25 26 24 23 23 22 22 22 22 21 21 21 21 21 20 19 19 18 18 19 19 19 19 19
29 30 29 29 27 26 25 24 24 25 25 26 24 25 27 28 27 25 24 24 25 26 25 24 23 23 23 23 22 22 22 21 21 21 21 20 19 19 19 19 19 19 19 19
27 28 29 28 26 25 26 25 23 24 25 26 26 26 27 28 27 27 25 25 25 25 24 24 24 23 24 24 23 22 21 21 21 21 21 20 20 20 19 19 20 20 20 20
24 25 26 25 24 26 26 25 24 25 26 27 28 28 29 28 28 27 27 27 26 25 25 24 24 23 24 24 23 22 22 22 22 22 22 21 20 20 20 21 21 21 21 21
24 24 24 25 25 25 25 26 25 26 26 26 28 29 29 28 29 27 27 27 26 25 24 24 24 23 22 23 22 22 22 22 22 22 22 22 21 21 21 22 22 22 21 21
23 25 25 25 25 26 25 25 25 26 27 27 28 29 29 29 29 29 28 28 28 25 24 24 24 22 22 22 23 23 23 23 23 23 22 22 22 22 22 22 22 21 21 20
22 23 25 26 26 26 26 26 25 27 29 28 29 29 30 29 29 29 28 28 28 27 26 25 24 22 22 23 23 23 23 23 23 23 23 22 22 21 21 21 21 21 21 20
22 23 24 25 25 24 25 27 27 28 28 28 28 28 29 29 29 29 27 26 27 27 27 26 25 23 23 24 24 25 25 24 23 23 22 22 22 21 21 21 20 20 20 20
23 23 24 25 26 26 26 28 28 27 28 27 28 28 28 29 30 29 27 26 26 26 26 26 26 25 24 25 25 26 25 24 23 23 22 21 21 21 20 20 19 20 20 20
23 24 24 25 25 26 25 26 26 26 25 28 28 27 27 28 29 29 28 27 26 26 26 26 26 26 25 26 26 26 25 24 24 23 23 22 22 21 20 20 20 20 20 20
21 23 25 25 25 24 25 25 26 27 25 26 27 28 28 28 28 27 27 27 26 26 26 26 26 26 26 26 25 25 25 24 24 23 23 23 23 22 21 21 21 21 21 21
23 23 24 24 25 24 25 27 28 27 26 26 27 28 28 28 27 27 26 26 26 26 27 26 26 26 26 25 25 24 24 23 23 23 23 23 23 23 22 22 21 21 22 22
Wind_Direction
236 236 237 238 238 237 235 237 242 251 254 258 260 258 254 259 268 269 270 275 279 278 279 280 282 285 290 294 300 306 308 310 314 318 320 318 320 323 326 326 323 323 321 320
239 239 239 236 236 236 233 236 238 240 247 254 259 260 258 255 266 271 271 273 279 279 278 280 285 288 289 290 294 300 306 310 312 314 316 317 315 316 320 321 320 318 316 315
241 239 239 236 236 238 235 235 236 239 243 250 256 260 261 256 257 265 270 272 274 275 274 279 283 285 289 292 292 297 305 308 311 313 315 317 318 315 315 314 315 314 313 312
239 239 239 239 236 238 241 241 240 237 238 247 253 261 262 258 256 261 268 270 271 274 273 276 278 282 286 289 291 296 301 305 308 310 313 314 316 316 315 313 312 313 310 309
239 239 238 239 238 238 241 243 242 239 240 244 249 255 259 262 266 266 265 267 267 270 271 274 275 277 281 284 286 291 296 301 304 306 309 311 311 311 311 312 312 312 311 308
240 242 241 239 241 241 240 240 242 241 245 246 243 248 252 258 263 265 265 266 266 266 265 271 275 276 279 281 283 286 291 296 298 302 305 308 310 309 310 310 311 310 309 307
242 243 243 240 239 240 238 236 239 242 246 253 249 247 249 249 254 262 266 266 266 264 265 268 269 271 276 279 282 284 288 291 294 298 300 303 307 307 308 309 310 310 309 309
241 242 243 241 238 240 239 238 235 237 243 253 251 249 249 250 249 257 264 265 265 264 265 267 267 270 274 279 282 284 286 288 291 293 295 298 302 302 303 306 309 309 307 307
241 245 244 244 242 237 239 237 235 239 239 244 245 249 255 253 251 254 259 262 264 263 263 266 269 271 273 276 279 282 284 285 286 288 292 294 298 299 299 302 305 307 308 305
235 239 240 241 240 238 234 235 230 230 233 235 240 245 251 257 255 258 259 260 260 260 262 264 266 268 269 272 276 281 283 284 285 287 291 295 297 299 298 301 302 305 307 306
231 234 235 235 235 235 233 231 227 228 229 232 236 241 248 253 258 261 259 258 261 262 263 262 263 264 266 269 274 279 282 284 285 287 290 294 295 297 297 298 301 304 305 304
227 230 232 233 236 237 235 234 230 230 230 228 229 239 244 247 253 256 257 256 256 258 261 259 259 259 264 269 273 277 279 281 283 286 290 292 293 293 296 297 297 300 301 299
229 229 233 234 235 237 235 231 228 232 235 234 232 239 248 251 250 253 253 254 254 255 256 258 258 260 263 268 272 276 276 280 282 284 287 291 293 293 293 294 294 296 297 297
230 231 230 228 230 238 241 236 229 227 231 235 235 237 246 247 250 253 254 254 254 254 253 255 258 261 263 267 271 275 276 278 281 284 286 288 290 293 292 291 292 294 294 295
230 231 230 224 223 229 236 237 234 230 229 233 237 240 247 250 249 250 252 251 251 254 254 255 258 261 264 267 269 272 274 275 278 282 284 287 287 290 292 292 292 293 294 294
232 232 231 226 223 226 230 232 234 233 230 231 235 240 249 252 250 250 248 248 250 253 256 257 258 259 262 265 268 270 272 273 277 279 281 282 285 288 290 290 291 291 292 294
235 234 233 229 227 232 232 229 231 234 233 233 234 239 246 248 251 251 251 251 252 254 255 257 258 259 261 264 267 269 269 272 275 276 279 281 281 285 286 287 289 290 292 294
235 233 232 227 226 233 237 231 229 232 233 234 235 239 244 249 251 250 250 253 252 252 253 255 257 258 260 263 265 267 268 270 273 275 277 281 281 283 284 286 289 290 292 291
237 234 230 225 226 233 234 234 232 233 233 236 238 240 242 246 250 252 252 252 254 255 255 256 258 260 260 260 262 266 268 270 273 274 276 279 281 282 282 284 287 288 289 288
239 234 231 228 228 233 234 236 235 235 237 236 238 241 243 246 248 251 253 253 253 253 254 256 258 259 260 259 261 265 268 271 274 276 277 278 280 281 281 284 284 286 288 287
239 237 235 232 232 235 234 235 234 236 240 239 240 243 242 244 248 251 252 253 253 253 254 256 257 258 260 260 262 265 269 273 276 278 279 279 277 278 280 282 282 284 286 287
238 239 237 236 236 236 233 235 236 238 241 242 243 242 242 245 248 250 251 252 252 254 255 255 257 259 261 263 264 267 270 272 274 276 277 277 277 276 278 279 280 283 286 286
236 238 236 235 237 237 239 236 237 242 242 245 246 246 246 246 249 249 251 251 251 253 254 256 258 260 262 265 267 267 267 268 270 271 273 275 275 275 275 277 279 282 284 285
239 238 237 238 239 240 238 240 242 245 246 246 247 249 250 248 249 250 251 250 251 253 253 255 258 261 264 266 267 268 265 266 267 267 269 270 272 274 274 275 277 279 282 283
242 242 240 239 239 243 242 243 244 246 250 250 248 249 249 250 252 252 251 251 252 254 255 257 259 261 263 265 268 268 266 263 261 263 266 269 270 272 274 274 275 276 279 281
240 241 240 240 239 242 245 246 246 245 249 251 248 248 249 249 250 251 251 253 254 255 255 258 260 260 261 263 264 264 265 262 260 261 264 267 271 271 273 273 274 276 279 280
Height
5861 5864 5866 5869 5871 5874 5877 5879 5881 5883 5883 5883 5883 5884 5884 5884 5884 5884 5885 5884 5883 5883 5884 5883 5883 5883 5883 5883 5882 5882 5881 5880 5879 5878 5877 5876 5874 5873 5872 5870 5869 5867 5866 5864
5857 5860 5863 5865 5867 5869 5872 5874 5877 5879 5880 5880 5879 5880 5881 5880 5881 5881 5881 5881 5880 5880 5881 5881 5881 5881 5880 5880 5880 5880 5879 5879 5878 5877 5875 5874 5873 5871 5870 5869 5867 5866 5864 5863
5853 5857 5858 5860 5862 5865 5867 5870 5872 5874 5876 5876 5876 5876 5877 5878 5878 5878 5878 5878 5878 5877 5877 5878 5878 5879 5878 5878 5878 5878 5878 5877 5876 5875 5874 5872 5871 5870 5869 5867 5866 5864 5863 5861
5849 5851 5853 5855 5857 5860 5862 5865 5867 5869 5871 5872 5873 5873 5874 5874 5874 5875 5875 5875 5875 5874 5874 5875 5875 5876 5876 5876 5876 5876 5875 5875 5874 5873 5872 5871 5869 5868 5866 5865 5863 5862 5860 5859
5844 5846 5848 5850 5853 5856 5858 5860 5862 5863 5865 5867 5868 5869 5871 5870 5870 5871 5871 5871 5872 5872 5871 5872 5872 5873 5873 5873 5873 5873 5873 5872 5871 5870 5869 5868 5867 5865 5864 5862 5861 5859 5858 5857
5839 5841 5843 5845 5848 5851 5853 5855 5857 5858 5860 5861 5863 5866 5867 5867 5867 5867 5867 5868 5868 5868 5868 5868 5869 5870 5870 5870 5870 5870 5870 5869 5868 5867 5866 5865 5864 5862 5861 5860 5858 5857 5856 5855
5834 5836 5838 5840 5843 5845 5848 5850 5852 5853 5855 5856 5860 5861 5863 5863 5863 5863 5864 5864 5864 5864 5864 5865 5865 5866 5866 5866 5866 5866 5866 5866 5865 5864 5863 5862 5861 5860 5858 5857 5856 5854 5854 5852
5828 5831 5832 5834 5837 5840 5842 5846 5848 5851 5853 5855 5856 5857 5858 5858 5858 5859 5860 5860 5861 5861 5860 5861 5861 5862 5863 5863 5863 5862 5862 5862 5861 5861 5860 5859 5858 5856 5855 5854 5853 5852 5851 5849
5823 5826 5828 5829 5832 5835 5837 5840 5844 5847 5849 5851 5853 5853 5853 5853 5853 5853 5854 5856 5857 5857 5857 5858 5858 5858 5859 5859 5859 5859 5858 5858 5858 5857 5856 5855 5854 5853 5852 5851 5850 5849 5847 5846
5817 5820 5822 5824 5826 5829 5832 5836 5839 5841 5844 5846 5849 5849 5849 5848 5848 5849 5850 5851 5852 5852 5852 5854 5854 5854 5854 5854 5855 5855 5854 5854 5853 5853 5852 5852 5851 5849 5849 5848 5847 5846 5845 5843
5811 5813 5816 5819 5820 5823 5826 5830 5832 5835 5838 5841 5844 5846 5844 5843 5843 5844 5845 5846 5847 5847 5848 5849 5849 5850 5850 5850 5850 5850 5850 5850 5849 5849 5848 5847 5847 5846 5845 5844 5844 5843 5842 5841
5803 5807 5809 5813 5815 5818 5821 5823 5826 5829 5831 5834 5837 5841 5837 5837 5839 5840 5840 5841 5842 5843 5843 5844 5844 5844 5845 5846 5846 5846 5846 5846 5845 5845 5844 5843 5842 5842 5841 5840 5840 5839 5838 5837
5797 5800 5803 5806 5811 5812 5814 5817 5820 5824 5827 5828 5831 5835 5833 5831 5833 5833 5834 5835 5836 5837 5838 5838 5840 5840 5841 5841 5842 5842 5842 5841 5841 5841 5840 5839 5838 5837 5837 5836 5836 5835 5834 5833
5790 5793 5798 5802 5805 5806 5809 5811 5814 5818 5820 5823 5825 5827 5827 5825 5827 5827 5829 5830 5831 5831 5832 5834 5835 5836 5837 5837 5837 5837 5837 5837 5836 5836 5835 5834 5833 5833 5832 5831 5831 5831 5830 5829
5782 5786 5790 5794 5797 5800 5802 5805 5808 5811 5814 5817 5820 5821 5820 5820 5822 5822 5823 5824 5825 5825 5826 5828 5830 5831 5831 5832 5832 5832 5832 5832 5832 5832 5831 5830 5829 5828 5827 5827 5827 5827 5826 5825
5775 5779 5783 5787 5790 5793 5796 5798 5801 5805 5808 5811 5813 5814 5814 5814 5814 5815 5817 5818 5819 5820 5821 5823 5824 5825 5826 5827 5827 5827 5827 5827 5827 5827 5827 5825 5825 5824 5824 5824 5823 5822 5821 5821
5768 5772 5776 5780 5784 5786 5789 5793 5796 5798 5801 5804 5806 5807 5807 5808 5808 5809 5811 5812 5813 5814 5816 5817 5818 5820 5820 5821 5822 5822 5822 5822 5822 5822 5822 5821 5821 5821 5820 5819 5819 5818 5817 5816
5762 5766 5769 5774 5778 5780 5785 5785 5788 5791 5793 5795 5798 5799 5800 5801 5803 5804 5805 5806 5807 5808 5810 5811 5812 5813 5815 5816 5816 5817 5817 5817 5817 5817 5817 5816 5815 5816 5815 5815 5814 5813 5812 5811
5757 5760 5763 5767 5771 5773 5777 5779 5781 5784 5786 5788 5790 5792 5793 5795 5796 5797 5798 5800 5801 5803 5804 5806 5807 5808 5809 5810 5811 5811 5812 5812 5812 5811 5811 5811 5811 5810 5810 5809 5808 5807 5806 5806
5751 5754 5758 5761 5765 5767 5771 5773 5775 5778 5779 5781 5784 5785 5787 5789 5790 5791 5792 5794 5795 5797 5798 5800 5801 5802 5803 5804 5805 5806 5806 5806 5806 5806 5805 5805 5805 5805 5804 5804 5803 5802 5801 5800
5746 5749 5752 5755 5757 5760 5764 5766 5768 5771 5772 5774 5776 5778 5780 5781 5783 5785 5786 5788 5789 5791 5793 5794 5795 5796 5797 5798 5799 5800 5800 5800 5800 5800 5799 5799 5799 5799 5799 5798 5797 5796 5796 5795
5741 5743 5746 5749 5751 5755 5757 5758 5761 5762 5764 5766 5768 5771 5773 5775 5776 5778 5780 5781 5783 5785 5786 5788 5789 5790 5791 5793 5793 5794 5794 5794 5794 5794 5794 5794 5793 5793 5793 5792 5792 5791 5790 5790
5735 5738 5740 5743 5746 5747 5748 5750 5752 5754 5756 5758 5761 5764 5766 5768 5769 5772 5774 5775 5777 5779 5780 5781 5783 5784 5785 5786 5787 5787 5787 5788 5788 5788 5788 5787 5787 5787 5787 5787 5786 5786 5786 5785
5730 5732 5734 5736 5738 5740 5741 5744 5746 5748 5750 5752 5755 5757 5759 5761 5762 5765 5767 5769 5770 5772 5774 5775 5776 5777 5779 5779 5780 5780 5780 5781 5782 5782 5782 5782 5782 5782 5781 5781 5781 5781 5781 5780
5724 5725 5727 5729 5732 5734 5735 5737 5739 5742 5744 5746 5748 5750 5752 5754 5756 5758 5760 5762 5764 5765 5767 5768 5770 5771 5772 5772 5773 5773 5774 5774 5775 5776 5776 5776 5776 5776 5776 5776 5776 5776 5775 5775
5719 5720 5722 5724 5725 5727 5729 5730 5732 5735 5737 5739 5741 5743 5745 5747 5749 5751 5753 5755 5757 5759 5760 5761 5763 5764 5765 5766 5767 5767 5767 5768 5769 5769 5770 5770 5770 5770 5770 5770 5770 5770 5770 5769